This demonstration page uses our WeatherBlox Daily Observations layout. Learn more.

Left ArrowRight Arrow

47.50024, -111.30081

Hourly Observations for January 12, 2020

Temp ( °F °C ) Dew Point ( °F °C ) Humidity (%) Winds ( mph kmh ) Pressure ( in mb ) Visibility ( mi km ) Precip ( " mm )
12:53 am 00:53 Clear 31 -0.6 20 -6.7 64 64 SW 16 26 29.67 1005 10 16 0.00 0.00
1:53 am 01:53 Clear 30 -1.1 19 -7.2 64 64 SW 17 28 29.68 1005 10 16 0.00 0.00
2:53 am 02:53 Clear 30 -1.1 18 -7.8 61 61 SW 16 26 29.70 1006 10 16 0.00 0.00
3:53 am 03:53 Clear 29 -1.7 16 -8.9 58 58 SSW 15 24 29.72 1006 10 16 0.00 0.00
4:53 am 04:53 Cloudy 16 -8.9 8 -13.3 71 71 N 22 35 29.80 1009 10 16 0.00 0.00
5:10 am 05:10 Partly Cloudy 10 -12.2 4 -15.6 76 76 N 17 28 29.97 1015 9 14 0.00 0.00
5:53 am 05:53 Mostly Cloudy 7 -13.9 1 -17.2 76 76 N 12 19 29.91 1013 8 13 0.00 0.00
6:53 am 06:53 Cloudy 5 -15 -1 -18.3 76 76 N 14 22 29.93 1014 7 11 0.00 0.00
7:04 am 07:04 Cloudy 5 -15 -1 -18.3 76 76 N 13 20 30.10 1019 7 11 0.00 0.00
7:53 am 07:53 Cloudy with Light Snow 3 -16.1 -3 -19.4 76 76 N 12 19 29.98 1015 4 6 0.00 0.00
8:53 am 08:53 Cloudy with Light Snow 2 -16.7 -4 -20 76 76 NNW 10 17 30.00 1016 3 5 0.00 0.00
9:53 am 09:53 Cloudy 1 -17.2 -5 -20.6 75 75 N 10 17 30.02 1017 7 11 0.00 0.00
10:53 am 10:53 Cloudy 2 -16.7 -6 -21.1 69 69 NNW 8 13 30.02 1017 7 11 0.00 0.00
11:53 am 11:53 Cloudy 2 -16.7 -6 -21.1 69 69 N 8 13 30.01 1016 8 13 0.00 0.00
12:53 pm 12:53 Cloudy 3 -16.1 -6 -21.1 66 66 N 8 13 29.99 1016 10 16 0.00 0.00
1:53 pm 13:53 Cloudy 3 -16.1 -6 -21.1 66 66 N 5 7 29.98 1015 10 16 0.00 0.00
2:53 pm 14:53 Cloudy 3 -16.1 -6 -21.1 66 66 N 7 11 29.98 1015 10 16 0.00 0.00
3:53 pm 15:53 Cloudy 2 -16.7 -7 -21.7 65 65 N 7 11 29.98 1015 10 16 0.00 0.00
4:53 pm 16:53 Cloudy 1 -17.2 -7 -21.7 68 68 NNE 7 11 30.01 1016 10 16 0.00 0.00
5:53 pm 17:53 Cloudy 1 -17.2 -7 -21.7 68 68 N 8 13 30.02 1017 10 16 0.00 0.00
6:53 pm 18:53 Cloudy 1 -17.2 -6 -21.1 72 72 NE 10 17 30.01 1016 9 14 0.00 0.00
7:53 pm 19:53 Cloudy -1 -18.3 -6 -21.1 79 79 ENE 10 17 30.01 1016 10 16 0.00 0.00
8:53 pm 20:53 Cloudy -1 -18.3 -6 -21.1 79 79 ENE 9 15 30.01 1016 10 16 0.00 0.00
9:27 pm 21:27 Cloudy -1 -18.3 -6 -21.1 79 79 ENE 10 17 30.14 1021 10 16 0.00 0.00
9:51 pm 21:51 Cloudy -2 -19 -6 -21 84 84 NE 10 17 30.15 1021 10 16 0.00 0.00
9:53 pm 21:53 Cloudy -2 -18.9 -7 -21.7 79 79 NE 13 20 30.01 1016 10 16 0.00 0.00
10:13 pm 22:13 Cloudy with Light Snow -2 -18.9 -7 -21.7 79 79 ENE 9 15 30.14 1021 3 5 0.00 0.00
10:31 pm 22:31 Cloudy with Light Snow -2 -18.9 -8 -22.2 75 75 NE 12 19 30.14 1021 2 3 0.01 0.25
10:49 pm 22:49 Cloudy with Light Snow -2 -19 -8 -22 77 77 ENE 10 17 30.16 1021 3 5 0.01 0.25
10:53 pm 22:53 Cloudy with Light Snow -2 -18.9 -8 -22.2 75 75 NE 10 17 30.01 1016 4 6 0.01 0.25
11:49 pm 23:49 Cloudy with Light Snow -4 -20 -9 -23 77 77 ENE 13 20 30.17 1022 2 3 0.00 0.00
11:53 pm 23:53 Cloudy with Light Snow -4 -20 -10 -23.3 75 75 ENE 12 19 30.01 1016 2 3 0.00 0.00

Powered by AerisWeather